Home   Weather   India   Patna   Past weeks
Flag for India

Past Weather in Patna, Bihar, India — Yesterday and Last 2 Weeks

Currently: 95 °F. Scattered clouds. (Weather station: Patna Airport, India). See more current weather

Past Weather in Patna — Graph

°F

Patna Temperature Yesterday

Maximum temperature yesterday: 93 °F (at 11:30 am)
Minimum temperature yesterday: 82 °F (at 1:00 am)
Average temperature yesterday: 87 °F

High & Low Weather Summary for the Past Weeks

 TemperatureHumidityPressure
High99 °F (Jun 27, 3:30 pm)100% (Jun 29, 12:30 pm)29.65 "Hg (Jun 29, 12:30 pm)
Low77 °F (Jun 29, 9:00 am)53% (Jun 22, 1:30 pm)29.39 "Hg (Jul 2, 3:00 pm)
Average87 °F81%29.51 "Hg
* Reported Jun 19 4:30 pm — Jul 4 4:30 pm, Patna. Weather by CustomWeather, © 2022

Note: Actual official high and low records may vary slightly from our data, if they occured in-between our weather recording intervals... More about our weather records

Patna Weather History for the Previous 24 Hours

Scroll right to see more
 ConditionsComfort  
Time TempWeatherWind HumidityBarometerVisibility
4:30 pm
Mon, Jul 4
95 °FScattered clouds.8 mph63%29.39 "Hg3 mi
4:00 pm95 °FScattered clouds.8 mph63%29.39 "Hg3 mi
3:30 pm95 °FScattered clouds.9 mph63%29.39 "Hg3 mi
3:00 pm95 °FScattered clouds.7 mph63%29.42 "Hg3 mi
2:30 pm95 °FScattered clouds.12 mph63%29.42 "Hg3 mi
2:00 pm95 °FScattered clouds.12 mph63%29.45 "Hg3 mi
1:30 pm95 °FScattered clouds.6 mph67%29.45 "Hg3 mi
1:00 pm93 °FScattered clouds.7 mph71%29.47 "Hg3 mi
12:30 pm93 °FScattered clouds.7 mph71%29.47 "Hg3 mi
12:00 pm91 °FHaze.6 mph75%29.47 "Hg3 mi
11:30 am91 °FScattered clouds.7 mph75%29.47 "Hg3 mi
10:30 am91 °FScattered clouds.6 mph75%29.50 "Hg2 mi
10:00 am91 °FScattered clouds.6 mph80%29.50 "Hg2 mi
9:30 am90 °FFog.7 mph84%29.50 "Hg2 mi
9:00 am88 °FFog.7 mph89%29.50 "Hg2 mi
8:30 am88 °FFog.5 mph89%29.50 "Hg2 mi
8:00 am86 °FFog.6 mph89%29.50 "Hg2 mi
7:30 am86 °FFog.6 mph89%29.50 "Hg2 mi
6:30 am84 °FFog.6 mph89%29.50 "Hg2 mi
5:00 am82 °FFog.6 mph94%29.47 "Hg2 mi
4:30 am82 °FFog.6 mph94%29.47 "Hg2 mi
4:00 am82 °FFog.5 mph94%29.45 "Hg2 mi
3:30 am82 °FFog.5 mph94%29.45 "Hg2 mi
3:00 am82 °FFog.3 mph94%29.45 "Hg2 mi
2:30 am84 °FFog.5 mph89%29.47 "Hg2 mi
1:30 am84 °FFog.6 mph89%29.47 "Hg2 mi
12:30 am84 °FFog.6 mph94%29.50 "Hg2 mi
12:00 am84 °FFog.7 mph94%29.50 "Hg2 mi
11:30 pm
Sun, Jul 3
84 °FFog.6 mph94%29.50 "Hg2 mi
10:30 pm84 °FFog.5 mph94%29.50 "Hg2 mi
10:00 pm84 °FFog.5 mph94%29.47 "Hg2 mi
9:30 pm84 °FFog.7 mph89%29.47 "Hg2 mi
9:00 pm82 °FLight rain. Partly cloudy.6 mph94%29.47 "Hg2 mi
8:30 pm86 °FLight rain. Partly cloudy.9 mph89%29.47 "Hg2 mi
8:00 pm88 °FFog.3 mph84%29.47 "Hg2 mi
7:30 pm88 °FFog.6 mph84%29.45 "Hg2 mi
7:00 pm88 °FFog.7 mph84%29.45 "Hg2 mi
6:30 pm90 °FFog.9 mph79%29.45 "Hg2 mi
6:00 pm90 °FBroken clouds.9 mph79%29.42 "Hg3 mi
5:30 pm90 °FBroken clouds.7 mph79%29.42 "Hg3 mi
5:00 pm90 °FBroken clouds.9 mph75%29.42 "Hg3 mi
Weather by CustomWeather, © 2022

See weather overview